This is the latest recevied weather packets stored in our database for station/object WB4YDL. If no packets are shown the sender has not sent any weather packets the latest 10 day(s).
| Time | Temp. | Humidity | Pressure | Rain* | Wind** | Luminosity | Snow |
|---|---|---|---|---|---|---|---|
| 1778075881 | 10° C | 92% | 1009.5 hPa | 0 mm | - | 164 W/m² | - |
| 1778075577 | 10° C | 92% | 1009.4 hPa | 0 mm | - | 135 W/m² | - |
| 1778075274 | 10° C | 93% | 1009.1 hPa | 0 mm | - | 144 W/m² | - |
| 1778074970 | 10° C | 93% | 1008.9 hPa | 0 mm | - | 179 W/m² | - |
| 1778074668 | 9.44° C | 93% | 1008.8 hPa | 0 mm | - | 162 W/m² | - |
| 1778074364 | 9.44° C | 93% | 1008.7 hPa | 0 mm | - | 145 W/m² | - |
| 1778074061 | 9.44° C | 93% | 1008.7 hPa | 0 mm | - | 128 W/m² | - |
| 1778073759 | 9.44° C | 94% | 1008.4 hPa | 0 mm | - | 119 W/m² | - |
| 1778073457 | 9.44° C | 94% | 1008.4 hPa | 0 mm | - | 110 W/m² | - |
| 1778073152 | 9.44° C | 94% | 1008.4 hPa | 0 mm | - | 118 W/m² | - |
| 1778072849 | 9.44° C | 94% | 1008.2 hPa | 0 mm | - | 92 W/m² | - |
| 1778072546 | 9.44° C | 95% | 1008.1 hPa | 0 mm | - | 132 W/m² | - |
| 1778072244 | 9.44° C | 95% | 1008.2 hPa | 0 mm | - | 141 W/m² | - |
| 1778071942 | 8.89° C | 95% | 1008.2 hPa | 0 mm | - | 81 W/m² | - |
| 1778071640 | 8.89° C | 95% | 1008.3 hPa | 0 mm | - | 73 W/m² | - |
| 1778071337 | 8.89° C | 95% | 1008.3 hPa | 0 mm | - | 62 W/m² | - |
| 1778071034 | 8.89° C | 96% | 1008 hPa | 0 mm | - | 46 W/m² | - |
| 1778070733 | 8.89° C | 96% | 1007.9 hPa | 0 mm | - | 57 W/m² | - |
| 1778070430 | 8.89° C | 96% | 1007.8 hPa | 0 mm | - | 64 W/m² | - |
| 1778070127 | 8.89° C | 96% | 1007.6 hPa | 0 mm | - | 63 W/m² | - |
| 1778069825 | 8.89° C | 96% | 1007.7 hPa | 0 mm | - | 60 W/m² | - |
| 1778069521 | 8.89° C | 96% | 1007.8 hPa | 0 mm | - | 46 W/m² | - |
| 1778069219 | 8.89° C | 96% | 1007.7 hPa | 0 mm | - | 38 W/m² | - |
| 1778068916 | 8.89° C | 96% | 1007.7 hPa | 0 mm | - | 38 W/m² | - |
| 1778068614 | 8.33° C | 96% | 1007.6 hPa | 0 mm | - | 36 W/m² | - |
* Rain latest hour (hover to see other rain measurements)
** Current wind speed in m/s (hover to see current wind gust speed)